When you browse on this site, cookies collect data to enhance your experience and personalize the content and advertising you see.
Visit our Privacy Policy to learn more. By continuing to use the site, you agree to this use of cookies and data.

Hourly Weather Inverness

Today, 3 July, Friday

Time Temperature Precipitation Wind Pressure Humidity
00:00 +10°C° 0 mm 1 mps 752 mmHg 86%
01:00 +10°C° 0.2 mm 1 mps 752 mmHg 88%
02:00 +10°C° 0.2 mm 1 mps 751 mmHg 89%
03:00 +8°C° 0.2 mm 2 mps 750 mmHg 91%
04:00 +9°C° 0.4 mm 1 mps 750 mmHg 92%
05:00 +9°C° 0.4 mm 1 mps 749 mmHg 93%
06:00 +9°C° 0.4 mm 1 mps 748 mmHg 94%
07:00 +10°C° 0.7 mm 1 mps 748 mmHg 95%
08:00 +10°C° 0.7 mm 1 mps 747 mmHg 95%
09:00 +10°C° 0.7 mm 1 mps 747 mmHg 96%
10:00 +11°C° 0.2 mm 1 mps 747 mmHg 94%
11:00 +12°C° 0.2 mm 1 mps 746 mmHg 92%
12:00 +12°C° 0.2 mm 2 mps 746 mmHg 90%
13:00 +13°C° 0.6 mm 2 mps 746 mmHg 90%
14:00 +12°C° 0.6 mm 3 mps 746 mmHg 90%
15:00 +13°C° 0.6 mm 3 mps 746 mmHg 90%
16:00 +13°C° 0.1 mm 4 mps 746 mmHg 85%
17:00 +13°C° 0.1 mm 4 mps 747 mmHg 80%
18:00 +13°C° 0.1 mm 5 mps 747 mmHg 75%
19:00 +12°C° 0 mm 4 mps 747 mmHg 78%
20:00 +11°C° 0 mm 4 mps 747 mmHg 81%
21:00 +10°C° 0 mm 3 mps 748 mmHg 84%
22:00 +10°C° 0 mm 3 mps 748 mmHg 87%
23:00 +9°C° 0 mm 3 mps 748 mmHg 90%

Tomorrow, 4 July, Saturday

Time Temperature Precipitation Wind Pressure Humidity
00:00 +8°C° 0 mm 3 mps 748 mmHg 93%
01:00 +8°C° 0 mm 3 mps 748 mmHg 92%
02:00 +8°C° 0 mm 3 mps 748 mmHg 92%
03:00 +8°C° 0 mm 2 mps 748 mmHg 91%
04:00 +9°C° 0 mm 2 mps 748 mmHg 90%
05:00 +9°C° 0 mm 2 mps 748 mmHg 89%
06:00 +10°C° 0 mm 2 mps 748 mmHg 88%
07:00 +10°C° 0.1 mm 2 mps 748 mmHg 87%
08:00 +12°C° 0.1 mm 1 mps 748 mmHg 87%
09:00 +12°C° 0.1 mm 1 mps 748 mmHg 86%
10:00 +12°C° 0.1 mm 1 mps 747 mmHg 86%
11:00 +13°C° 0.1 mm 1 mps 747 mmHg 85%
12:00 +13°C° 0.1 mm 1 mps 747 mmHg 84%
13:00 +14°C° 0 mm 2 mps 747 mmHg 80%
14:00 +14°C° 0 mm 2 mps 747 mmHg 77%
15:00 +15°C° 0 mm 2 mps 747 mmHg 73%
16:00 +15°C° 0.1 mm 2 mps 747 mmHg 75%
17:00 +15°C° 0.1 mm 2 mps 746 mmHg 76%
18:00 +15°C° 0.1 mm 1 mps 746 mmHg 77%
19:00 +14°C° 0 mm 1 mps 746 mmHg 82%
20:00 +13°C° 0 mm 1 mps 745 mmHg 86%
21:00 +13°C° 0 mm 1 mps 745 mmHg 91%
22:00 +12°C° 1 mm 1 mps 744 mmHg 93%
23:00 +12°C° 1 mm 1 mps 743 mmHg 95%

Day after tomorrow, 5 July, Sunday

Time Temperature Precipitation Wind Pressure Humidity
00:00 +12°C° 1 mm 1 mps 742 mmHg 97%
01:00 +12°C° 2.4 mm 1 mps 741 mmHg 98%
02:00 +12°C° 2.4 mm 1 mps 740 mmHg 98%
03:00 +12°C° 2.4 mm 1 mps 739 mmHg 99%
04:00 +12°C° 0.8 mm 2 mps 739 mmHg 96%
05:00 +11°C° 0.8 mm 3 mps 740 mmHg 94%
06:00 +11°C° 0.8 mm 4 mps 740 mmHg 92%
07:00 +10°C° 0.2 mm 5 mps 740 mmHg 90%
08:00 +10°C° 0.2 mm 6 mps 741 mmHg 88%
09:00 +10°C° 0.2 mm 7 mps 741 mmHg 86%
10:00 +11°C° 0.2 mm 7 mps 742 mmHg 81%
11:00 +12°C° 0.2 mm 7 mps 742 mmHg 77%
12:00 +14°C° 0.2 mm 7 mps 742 mmHg 73%
13:00 +12°C° 0.3 mm 7 mps 742 mmHg 73%
14:00 +13°C° 0.3 mm 6 mps 742 mmHg 73%
15:00 +13°C° 0.3 mm 6 mps 743 mmHg 73%
16:00 +13°C° 0.4 mm 5 mps 743 mmHg 76%
17:00 +13°C° 0.4 mm 5 mps 743 mmHg 79%
18:00 +13°C° 0.4 mm 4 mps 743 mmHg 82%
19:00 +12°C° 0.2 mm 4 mps 743 mmHg 85%
20:00 +11°C° 0.2 mm 3 mps 744 mmHg 89%
21:00 +10°C° 0.2 mm 3 mps 745 mmHg 92%
22:00 +8°C° 0.1 mm 4 mps 745 mmHg 92%
23:00 +8°C° 0.1 mm 4 mps 746 mmHg 92%

6 July, Monday

Time Temperature Precipitation Wind Pressure Humidity
00:00 +8°C° 0.1 mm 5 mps 746 mmHg 92%
01:00 +8°C° 0.3 mm 5 mps 747 mmHg 93%
02:00 +9°C° 0.3 mm 5 mps 748 mmHg 94%
03:00 +9°C° 0.3 mm 5 mps 749 mmHg 94%
04:00 +9°C° 0.2 mm 5 mps 750 mmHg 93%
05:00 +9°C° 0.2 mm 5 mps 751 mmHg 91%
06:00 +9°C° 0.2 mm 6 mps 753 mmHg 89%
07:00 +9°C° 0.1 mm 6 mps 754 mmHg 83%
08:00 +10°C° 0.1 mm 6 mps 755 mmHg 77%
09:00 +10°C° 0.1 mm 6 mps 756 mmHg 71%
10:00 +12°C° 0 mm 5 mps 756 mmHg 69%
11:00 +12°C° 0 mm 5 mps 757 mmHg 67%
12:00 +13°C° 0 mm 5 mps 757 mmHg 65%
13:00 +13°C° 0.1 mm 5 mps 757 mmHg 64%
14:00 +13°C° 0.1 mm 6 mps 758 mmHg 64%
15:00 +14°C° 0.1 mm 6 mps 758 mmHg 63%
16:00 +13°C° 0 mm 6 mps 758 mmHg 66%
17:00 +13°C° 0 mm 6 mps 758 mmHg 69%
18:00 +12°C° 0 mm 5 mps 758 mmHg 72%
19:00 +10°C° 0.1 mm 6 mps 758 mmHg 76%
20:00 +10°C° 0.1 mm 6 mps 758 mmHg 80%
21:00 +9°C° 0.1 mm 6 mps 758 mmHg 84%
22:00 +9°C° 0 mm 6 mps 758 mmHg 85%
23:00 +9°C° 0 mm 5 mps 758 mmHg 86%

7 July, Tuesday

Time Temperature Precipitation Wind Pressure Humidity
00:00 +9°C° 0 mm 5 mps 758 mmHg 87%
01:00 +9°C° 0 mm 5 mps 758 mmHg 87%
02:00 +8°C° 0 mm 5 mps 758 mmHg 87%
03:00 +8°C° 0 mm 5 mps 758 mmHg 87%
04:00 +10°C° 0.1 mm 4 mps 758 mmHg 87%
05:00 +10°C° 0.1 mm 4 mps 758 mmHg 87%
06:00 +10°C° 0.1 mm 3 mps 758 mmHg 87%
07:00 +11°C° 0.1 mm 3 mps 759 mmHg 84%
08:00 +11°C° 0.1 mm 3 mps 759 mmHg 80%
09:00 +13°C° 0.1 mm 2 mps 759 mmHg 77%
10:00 +14°C° 0.1 mm 2 mps 759 mmHg 73%
11:00 +14°C° 0.1 mm 3 mps 759 mmHg 69%
12:00 +16°C° 0.1 mm 3 mps 760 mmHg 66%
13:00 +16°C° 0.1 mm 2 mps 760 mmHg 65%
14:00 +16°C° 0.1 mm 2 mps 760 mmHg 65%
15:00 +16°C° 0.1 mm 2 mps 760 mmHg 65%
16:00 +16°C° 0.1 mm 2 mps 760 mmHg 67%
17:00 +15°C° 0.1 mm 2 mps 760 mmHg 70%
18:00 +15°C° 0.1 mm 2 mps 760 mmHg 72%
19:00 +14°C° 0 mm 1 mps 759 mmHg 76%
20:00 +13°C° 0 mm 1 mps 759 mmHg 81%
21:00 +12°C° 0 mm 1 mps 759 mmHg 85%
22:00 +12°C° 0.2 mm 1 mps 759 mmHg 88%
23:00 +12°C° 0.2 mm 1 mps 758 mmHg 91%

8 July, Wednesday

Time Temperature Precipitation Wind Pressure Humidity
00:00 +11°C° 0.2 mm 1 mps 758 mmHg 94%
01:00 +11°C° 0.3 mm 1 mps 757 mmHg 95%
02:00 +11°C° 0.3 mm 1 mps 757 mmHg 95%
03:00 +11°C° 0.3 mm 1 mps 756 mmHg 96%
04:00 +12°C° 0.2 mm 1 mps 756 mmHg 96%
05:00 +12°C° 0.2 mm 1 mps 755 mmHg 96%
06:00 +12°C° 0.2 mm 1 mps 755 mmHg 95%
07:00 +13°C° 0.2 mm 2 mps 755 mmHg 94%
08:00 +14°C° 0.2 mm 2 mps 754 mmHg 94%
09:00 +14°C° 0.2 mm 2 mps 754 mmHg 93%
10:00 +15°C° 0.1 mm 2 mps 754 mmHg 93%
11:00 +16°C° 0.1 mm 3 mps 753 mmHg 93%
12:00 +16°C° 0.1 mm 3 mps 753 mmHg 92%
13:00 +17°C° 0.1 mm 3 mps 753 mmHg 89%
14:00 +18°C° 0.1 mm 4 mps 752 mmHg 86%
15:00 +19°C° 0.1 mm 4 mps 752 mmHg 83%
16:00 +18°C° 0.1 mm 4 mps 752 mmHg 86%
17:00 +17°C° 0.1 mm 4 mps 752 mmHg 89%
18:00 +17°C° 0.1 mm 3 mps 752 mmHg 93%
19:00 +16°C° 0.1 mm 3 mps 751 mmHg 92%
20:00 +16°C° 0.1 mm 3 mps 751 mmHg 92%
21:00 +14°C° 0.1 mm 3 mps 751 mmHg 92%
22:00 +14°C° 0.1 mm 4 mps 751 mmHg 92%
23:00 +13°C° 0.1 mm 5 mps 750 mmHg 91%
Show more